Location: ???????
(56.2167°N, 38.0500°E)
Time: 04:36:19
(UTC+00:00)

NOSS 2-1 (E) - Pass Details

Date: 19 May 2025
Orbit: 385 x 1749 km, 63.3° (Epoch: 07 May)

Event Time Altitude Azimuth Distance (km) Brightness Sun altitude
Exits shadow 22:21:20 - 256° (WSW) 1,873 5.8 -12.9°
Reaches altitude 10° 22:22:18 10° 260° (W) 1,467 5.3 -12.8°
Maximum altitude 22:25:17 41° 333° (NNW) 578 3.8 -12.7°
Drops below altitude 10° 22:28:13 10° 47° (NE) 1,442 6.4 -12.6°
Sets 22:30:22 0° 55° (NE) 2,358 7.4 -12.5°
